Regional Weather Roundup
Issued by NWS

Home | Current Version | Previous Version | Text Only | Print | Product List | Glossary On
Versions: 1 2 3 4 5 6 7 8 9 10 11 12 13 14 15 16 17 18 19 20 21 22 23 24 25 26 27 28 29 30 31 32 33 34 35 36 37 38 39 40 41 42 43 44 45 46 47 48 49 50
000
ASUS45 KBOU 220107
RWRCO

WEATHER ROUNDUP FOR COLORADO
NATIONAL WEATHER SERVICE DENVER/BOULDER CO
700 PM MDT THU MAY 21 2015

NOTE: "FAIR" INDICATES FEW OR NO CLOUDS BELOW 12000 FEET WITH NO
SIGNIFICANT WEATHER AND/OR OBSTRUCTIONS TO VISIBILITY.

COZ001>005-013-030-031-220200-
...NORTHWEST COLORADO...

CITY           SKY/WX    TMP DP  RH WIND       PRES   REMARKS
CRAIG          CLOUDY    62  40  44 E7        29.93F
HAYDEN         CLOUDY    55  36  47 SE25      29.97R
MEEKER         CLOUDY    61  37  41 SW10      29.95R
MOUNT WERNER   NOT AVBL
STEAMBOAT SPGS CLOUDY    50  38  64 NE10G20   30.01R
WALDEN         CLOUDY    50  32  50 SE10      30.08S
$$

COZ006>008-011-220200-
...WEST CENTRAL VALLEYS...

CITY           SKY/WX    TMP DP  RH WIND       PRES   REMARKS
GRAND JUNCTION CLOUDY    63  40  42 N5        29.90S
MONTROSE       CLOUDY    61  36  39 W6G18     29.94F
EAGLE          LGT RAIN  64  45  48 E9        30.03R
RIFLE          CLOUDY    61  42  49 W3        29.92R
DELTA          CLOUDY    64  40  42 NW9       29.94S
NUCLA          CLOUDY    63  34  34 NE5       29.94F
$$

COZ017>023-064>068-220200-
...SOUTHWEST COLORADO...

CITY           SKY/WX    TMP DP  RH WIND       PRES   REMARKS
DURANGO        CLOUDY    55  39  54 E15G24    30.01F
CORTEZ         PTSUNNY   63  37  38 SE20G37   29.89S
PAGOSA SPRINGS CLOUDY    47  45  91 NE9       30.11F
TELLURIDE      CLOUDY    50  31  47 S10G17    30.09F
WOLF CREEK PAS NOT AVBL
$$

COZ009-010-012-014-032>034-037-058>063-220200-
...CENTRAL COLORADO...

CITY           SKY/WX    TMP DP  RH WIND       PRES   REMARKS
ASPEN          LGT RAIN  46  41  82 SE9       30.09R
BUENA VISTA    CLOUDY    44  40  85 SE8       30.14S
COPPER MTN     CLOUDY    37  28  70 SE14      30.24F
BERTHOUD PASS  HAZE      28  19  69 SE24G31   30.29S VSB<1/4 WCI  14
COTTONWOOD PAS CLOUDY    41  36  81 SE3       30.19S
GUNNISON       CLOUDY    54  34  47 N13       30.05F
KREMMLING      CLOUDY    54  34  47 E10       30.06S
LEADVILLE      CLOUDY    42  33  70 S14       30.15S
SALIDA         CLOUDY    46  44  92 SE9       30.19F
SUNLIGHT       CLOUDY    41  34  75 CALM      30.20F
WILKERSON PASS HVY SNOW  32  32 100 S8        30.28F VSB<1/4 WCI  25
$$

COZ069>075-220200-
...SAN LUIS VALLEY/SANGRE DE CRISTO MOUNTAINS...

CITY           SKY/WX    TMP DP  RH WIND       PRES   REMARKS
ALAMOSA        CLOUDY    53  34  48 W22       30.09R
LA VETA PASS   TSTM     N/A N/A N/A MISG      30.22R VSB<1/4
SAGUACHE       CLOUDY    50  39  66 SE15      30.09S
$$

COZ035-036-038>040-220200-
...NORTHERN COLORADO FRONT RANGE...

CITY           SKY/WX    TMP DP  RH WIND       PRES   REMARKS
DENVER INTL AP CLOUDY    51  43  74 NW13      30.09F
DMNS CITY PARK   N/A     51  42  71 NE3       30.10S
AURORA         CLOUDY    50  43  76 NE5       30.11F
FRONT RANGE AP CLOUDY    54  46  76 NW10      30.10S
ERIE MUNI ARPT CLOUDY    52  44  74 CALM      30.09F
BOULDER MUN AP CLOUDY    52  43  71 N3        30.08F
CENTENNIAL     CLOUDY    51  42  71 S9        30.10F
BROOMFIELD     CLOUDY    50  45  81 NW6       30.10F
FORT COLLINS   CLOUDY    54  43  66 NW6       30.11F
LONGMONT       CLOUDY    56  44  64 N6        30.10F
$$

COZ041-046-047-076>085-087-088-220200-
...PIKES PEAK/PALMER DIVIDE AND SOUTHERN FOOTHILLS...

CITY           SKY/WX    TMP DP  RH WIND       PRES   REMARKS
COLO. SPRINGS  CLOUDY    46  44  93 S3        30.15S FOG
A. F. ACADEMY  CLOUDY    45  45  99 S9        30.14S
ELLICOTT       NOT AVBL
FALCON         CLOUDY    44  44  99 SE9       30.16S FOG
FORT CARSON    CLOUDY    46  46 100 W3        30.12F
LIMON          CLOUDY    48  43  82 SE16      30.14F
MONUMENT HILL  NOT AVBL
TRINIDAD       CLOUDY    53  45  74 W9        30.09S
$$

COZ042>045-048>051-090-091-220200-
...NORTHEAST COLORADO...

CITY           SKY/WX    TMP DP  RH WIND       PRES   REMARKS
GREELEY ARPT   CLOUDY    55  45  67 SE13      30.10S
AKRON          CLOUDY    52  44  74 S13       30.14S
BURLINGTON     CLOUDY    52  43  71 SE16      30.17S
WRAY           CLOUDY    56  44  63 SE15      30.15F
STERLING       CLOUDY    55  45  67 SE15      30.12S
HOLYOKE        NOT AVBL
FORT MORGAN    CLOUDY    53  43  69 S14       30.13R
$$

COZ086-089-092>099-220200-
...SOUTHEAST COLORADO...

CITY           SKY/WX    TMP DP  RH WIND       PRES   REMARKS
PUEBLO         CLOUDY    53  47  79 E16       30.09F
LA JUNTA       CLOUDY    57  46  66 SE17      30.09S
LAMAR          CLOUDY    54  46  74 SE15G23   30.12S
SPRINGFIELD      N/A     49  44  83 SE14      30.15F
$$



USA.gov is the U.S. government's official web portal to all federal, state and local government web resources and services.